World > North America > United States > New York > Chazy  

Chazy, NY Hourly Weather Updates

Feedback E-mail the Weather

Quick Clicks

Chazy, NY Weather Maps

°F °C°F °C
Chazy Weather Map
UTC Time: 7/21/2024, 02:00
Your Time:

Chazy, NY Regional Weather

Expires:202407210200;;016183
ASUS41 KBTV 210130
RWRBTV
VERMONT REGIONAL WEATHER ROUNDUP
NATIONAL WEATHER SERVICE BURLINGTON VT
900 PM EDT SAT JUL 20 2024

NOTE: "FAIR" INDICATES FEW OR NO CLOUDS BELOW 12,000 FEET WITH NO 
SIGNIFICANT WEATHER AND/OR OBSTRUCTIONS TO VISIBILITY.

* THESE REPORTS ARE NOT UNDER NWS QUALITY CONTROL AND/OR DO NOT
  REPORT WEATHER SUCH AS PRECIPITATION AND FOG.


NYZ007-026>031-035-052-083-087-210200-
_____NORTHERN NEW YORK_
  
CITY           SKY/WX    TMP DP  RH WIND       PRES   REMARKS
PLATTSBURGH    CLEAR     74  57  55 CALM      29.96R TC  23           
SARANAC LAKE   CLEAR     64  53  67 SW6       30.04R TC  18           
MASSENA        CLOUDY    73  59  61 NW5       29.99R TC  23           
OGDENSBURG*    MOCLDY    72  57  60 VRB6G14   29.99R TC  22           
POTSDAM*       CLOUDY    70  57  64 SW10      30.00R TC  21           
WATERTOWN      CLEAR     69  58  67 S6        30.02S TC  21           
FT DRUM        CLEAR     70  54  57 SW7       30.00S TC  21           
ALBANY         MOCLDY    75  65  70 S6        30.02R TC  24           
GLENS FALLS    PTCLDY    70  52  52 SW6       29.99R TC  21           

$$

SKY/WX - Weather  TMP - Temperature  DP - Dew Point  RH - Humidity
WIND - Wind Direction/Speed PRES - Barometric Pressure VSB - Visibility
WCI - Wind Chill Index E13G22 Wind - East Wind 13 mph/Gusts of 22 mph

Trending Headlines

Trending Entertainment Headlines

Chazy Radar Loop

Use the map search tool if you want to place a location marker on the radar map...

Chazy Quick Facts

National Two Day Weather Forecast


E-mail the Chazy Weather Forecast

Voice your opinion or tell us about page issues...